Time,TemperatureF,DewpointF,PressureIn,WindDirection,WindDirectionDegrees,WindSpeedMPH,WindSpeedGustMPH,Humidity,HourlyPrecipIn,Conditions,Clouds,dailyrainin,SolarRadiationWatts/m^2,SoftwareType,DateUTC
2013-02-06 00:11:00,23.0,8.0,-100.00,ESE,108,0.0,5.0,53,0.00,,,0.00,0.000000,,2013-02-06 07:11:00,
2013-02-06 00:21:00,23.0,8.0,-100.00,ESE,108,0.0,5.0,53,0.00,,,0.00,0.000000,,2013-02-06 07:21:00,
2013-02-06 00:32:00,23.0,8.0,-100.00,ESE,108,0.0,5.0,53,0.00,,,0.00,0.000000,,2013-02-06 07:32:00,
2013-02-06 00:41:00,23.0,8.0,-100.00,ESE,108,0.0,5.0,53,0.00,,,0.00,0.000000,,2013-02-06 07:41:00,
2013-02-06 01:11:00,21.0,9.0,-100.00,NE,47,4.0,6.0,59,0.00,,,0.00,0.000000,,2013-02-06 08:11:00,
2013-02-06 01:21:00,21.0,9.0,-100.00,NE,47,4.0,6.0,59,0.00,,,0.00,0.000000,,2013-02-06 08:21:00,
2013-02-06 01:31:00,21.0,9.0,-100.00,NE,47,4.0,6.0,59,0.00,,,0.00,0.000000,,2013-02-06 08:31:00,
2013-02-06 01:41:00,21.0,9.0,-100.00,NE,47,4.0,6.0,59,0.00,,,0.00,0.000000,,2013-02-06 08:41:00,
2013-02-06 02:11:00,20.0,11.0,-100.00,WNW,296,0.0,6.0,68,0.00,,,0.00,0.000000,,2013-02-06 09:11:00,
2013-02-06 02:21:00,20.0,11.0,-100.00,WNW,296,0.0,6.0,68,0.00,,,0.00,0.000000,,2013-02-06 09:21:00,
2013-02-06 02:31:00,20.0,11.0,-100.00,WNW,296,0.0,6.0,68,0.00,,,0.00,0.000000,,2013-02-06 09:31:00,
2013-02-06 02:41:00,20.0,11.0,-100.00,WNW,296,0.0,6.0,68,0.00,,,0.00,0.000000,,2013-02-06 09:41:00,
2013-02-06 03:11:00,18.0,12.0,-100.00,NE,52,0.0,4.0,77,0.00,,,0.00,0.000000,,2013-02-06 10:11:00,
2013-02-06 03:21:00,18.0,12.0,-100.00,NE,52,0.0,4.0,77,0.00,,,0.00,0.000000,,2013-02-06 10:21:00,
2013-02-06 03:31:00,18.0,12.0,-100.00,NE,52,0.0,4.0,77,0.00,,,0.00,0.000000,,2013-02-06 10:31:00,
2013-02-06 03:41:00,18.0,12.0,-100.00,NE,52,0.0,4.0,77,0.00,,,0.00,0.000000,,2013-02-06 10:41:00,
2013-02-06 04:11:00,19.0,10.0,-100.00,SW,214,0.0,5.0,67,0.00,,,0.00,0.000000,,2013-02-06 11:11:00,
2013-02-06 04:22:00,19.0,10.0,-100.00,SW,214,0.0,5.0,67,0.00,,,0.00,0.000000,,2013-02-06 11:22:00,
2013-02-06 04:42:00,19.0,10.0,-100.00,SW,214,0.0,5.0,67,0.00,,,0.00,0.000000,,2013-02-06 11:42:00,
2013-02-06 05:12:00,16.0,11.0,-100.00,ESE,103,0.0,0.0,80,0.00,,,0.00,0.000000,,2013-02-06 12:12:00,
2013-02-06 05:22:00,16.0,11.0,-100.00,ESE,103,0.0,0.0,80,0.00,,,0.00,0.000000,,2013-02-06 12:22:00,
2013-02-06 05:42:00,16.0,11.0,-100.00,ESE,103,0.0,0.0,80,0.00,,,0.00,0.000000,,2013-02-06 12:42:00,
2013-02-06 06:11:00,16.0,9.0,-100.00,SW,220,5.0,7.0,72,0.00,,,0.00,0.000000,,2013-02-06 13:11:00,
2013-02-06 06:21:00,16.0,9.0,-100.00,SW,220,5.0,7.0,72,0.00,,,0.00,0.000000,,2013-02-06 13:21:00,
2013-02-06 06:31:00,16.0,9.0,-100.00,SW,220,5.0,7.0,72,0.00,,,0.00,0.000000,,2013-02-06 13:31:00,
2013-02-06 06:42:00,16.0,9.0,-100.00,SW,220,5.0,7.0,72,0.00,,,0.00,0.000000,,2013-02-06 13:42:00,
2013-02-06 07:11:00,17.0,8.0,-100.00,SSW,211,0.0,8.0,68,0.00,,,0.00,0.000000,,2013-02-06 14:11:00,
2013-02-06 07:21:00,17.0,8.0,-100.00,SSW,211,0.0,8.0,68,0.00,,,0.00,0.000000,,2013-02-06 14:21:00,
2013-02-06 07:31:00,17.0,8.0,-100.00,SSW,211,0.0,8.0,68,0.00,,,0.00,0.000000,,2013-02-06 14:31:00,
2013-02-06 07:41:00,17.0,8.0,-100.00,SSW,211,0.0,8.0,68,0.00,,,0.00,0.000000,,2013-02-06 14:41:00,
2013-02-06 08:11:00,21.0,12.0,-100.00,NNW,346,2.0,6.0,67,0.00,,,0.00,27.000000,,2013-02-06 15:11:00,
2013-02-06 08:21:00,21.0,12.0,-100.00,NNW,346,2.0,6.0,67,0.00,,,0.00,27.000000,,2013-02-06 15:21:00,
2013-02-06 08:31:00,21.0,12.0,-100.00,NNW,346,2.0,6.0,67,0.00,,,0.00,27.000000,,2013-02-06 15:31:00,
2013-02-06 08:41:00,21.0,12.0,-100.00,NNW,346,2.0,6.0,67,0.00,,,0.00,27.000000,,2013-02-06 15:41:00,
2013-02-06 09:11:00,26.0,9.0,-100.00,WSW,251,0.0,6.0,49,0.00,,,0.00,245.000000,,2013-02-06 16:11:00,
2013-02-06 09:21:00,26.0,9.0,-100.00,WSW,251,0.0,6.0,49,0.00,,,0.00,245.000000,,2013-02-06 16:21:00,
2013-02-06 09:41:00,26.0,9.0,-100.00,WSW,251,0.0,6.0,49,0.00,,,0.00,245.000000,,2013-02-06 16:41:00,
2013-02-06 10:11:00,27.0,10.0,-100.00,SW,224,3.0,6.0,48,0.00,,,0.00,429.000000,,2013-02-06 17:11:00,
2013-02-06 10:21:00,27.0,10.0,-100.00,SW,224,3.0,6.0,48,0.00,,,0.00,429.000000,,2013-02-06 17:21:00,
2013-02-06 10:32:00,27.0,10.0,-100.00,SW,224,3.0,6.0,48,0.00,,,0.00,429.000000,,2013-02-06 17:32:00,
2013-02-06 10:41:00,27.0,10.0,-100.00,SW,224,3.0,6.0,48,0.00,,,0.00,429.000000,,2013-02-06 17:41:00,
2013-02-06 11:11:00,33.0,11.0,-100.00,NE,54,0.0,4.0,39,0.00,,,0.00,618.000000,,2013-02-06 18:11:00,
2013-02-06 11:22:00,33.0,11.0,-100.00,NE,54,0.0,4.0,39,0.00,,,0.00,618.000000,,2013-02-06 18:22:00,
2013-02-06 11:32:00,33.0,11.0,-100.00,NE,54,0.0,4.0,39,0.00,,,0.00,618.000000,,2013-02-06 18:32:00,
2013-02-06 11:41:00,33.0,11.0,-100.00,NE,54,0.0,4.0,39,0.00,,,0.00,618.000000,,2013-02-06 18:41:00,
2013-02-06 12:11:00,41.0,15.0,-100.00,SSW,202,2.0,6.0,35,0.00,,,0.00,757.000000,,2013-02-06 19:11:00,
2013-02-06 12:21:00,41.0,15.0,-100.00,SSW,202,2.0,6.0,35,0.00,,,0.00,757.000000,,2013-02-06 19:21:00,
2013-02-06 12:31:00,41.0,15.0,-100.00,SSW,202,2.0,6.0,35,0.00,,,0.00,757.000000,,2013-02-06 19:31:00,
2013-02-06 13:11:00,38.0,18.0,-100.00,NNW,336,1.0,9.0,43,0.00,,,0.00,705.000000,,2013-02-06 20:11:00,
2013-02-06 13:21:00,38.0,18.0,-100.00,NNW,336,1.0,9.0,43,0.00,,,0.00,705.000000,,2013-02-06 20:21:00,
2013-02-06 13:31:00,38.0,18.0,-100.00,NNW,336,1.0,9.0,43,0.00,,,0.00,705.000000,,2013-02-06 20:31:00,
2013-02-06 13:41:00,38.0,18.0,-100.00,NNW,336,1.0,9.0,43,0.00,,,0.00,705.000000,,2013-02-06 20:41:00,
2013-02-06 14:11:00,35.0,15.0,-100.00,NNW,333,3.0,10.0,44,0.00,,,0.00,481.000000,,2013-02-06 21:11:00,
2013-02-06 14:21:00,35.0,15.0,-100.00,NNW,333,3.0,10.0,44,0.00,,,0.00,481.000000,,2013-02-06 21:21:00,
2013-02-06 14:31:00,35.0,15.0,-100.00,NNW,333,3.0,10.0,44,0.00,,,0.00,481.000000,,2013-02-06 21:31:00,
2013-02-06 14:41:00,35.0,15.0,-100.00,NNW,333,3.0,10.0,44,0.00,,,0.00,481.000000,,2013-02-06 21:41:00,
2013-02-06 15:11:00,30.0,23.0,-100.00,NNW,328,6.0,16.0,74,0.00,,,0.00,368.000000,,2013-02-06 22:11:00,
2013-02-06 15:21:00,30.0,23.0,-100.00,NNW,328,6.0,16.0,74,0.00,,,0.00,368.000000,,2013-02-06 22:21:00,
2013-02-06 15:31:00,30.0,23.0,-100.00,NNW,328,6.0,16.0,74,0.00,,,0.00,368.000000,,2013-02-06 22:31:00,
2013-02-06 15:41:00,30.0,23.0,-100.00,NNW,328,6.0,16.0,74,0.00,,,0.00,368.000000,,2013-02-06 22:41:00,
2013-02-06 16:11:00,30.0,22.0,-100.00,NW,311,8.0,16.0,72,0.00,,,0.00,359.000000,,2013-02-06 23:11:00,
2013-02-06 16:21:00,30.0,22.0,-100.00,NW,311,8.0,16.0,72,0.00,,,0.00,359.000000,,2013-02-06 23:21:00,
2013-02-06 16:31:00,30.0,22.0,-100.00,NW,311,8.0,16.0,72,0.00,,,0.00,359.000000,,2013-02-06 23:31:00,
2013-02-06 16:41:00,30.0,22.0,-100.00,NW,311,8.0,16.0,72,0.00,,,0.00,359.000000,,2013-02-06 23:41:00,
2013-02-06 17:11:00,27.0,24.0,-100.00,NW,308,9.0,17.0,87,0.00,,,0.00,161.000000,,2013-02-07 00:11:00,
2013-02-06 17:21:00,27.0,24.0,-100.00,NW,308,9.0,17.0,87,0.00,,,0.00,161.000000,,2013-02-07 00:21:00,
2013-02-06 17:31:00,27.0,24.0,-100.00,NW,308,9.0,17.0,87,0.00,,,0.00,161.000000,,2013-02-07 00:31:00,
2013-02-06 17:41:00,27.0,24.0,-100.00,NW,308,9.0,17.0,87,0.00,,,0.00,161.000000,,2013-02-07 00:41:00,
2013-02-06 18:11:00,27.0,22.0,-100.00,WNW,293,4.0,14.0,82,0.00,,,0.00,32.000000,,2013-02-07 01:11:00,
2013-02-06 18:21:00,27.0,22.0,-100.00,WNW,293,4.0,14.0,82,0.00,,,0.00,32.000000,,2013-02-07 01:21:00,
2013-02-06 18:31:00,27.0,22.0,-100.00,WNW,293,4.0,14.0,82,0.00,,,0.00,32.000000,,2013-02-07 01:31:00,
2013-02-06 18:41:00,27.0,22.0,-100.00,WNW,293,4.0,14.0,82,0.00,,,0.00,32.000000,,2013-02-07 01:41:00,
2013-02-06 19:11:00,26.0,22.0,-100.00,West,267,2.0,10.0,85,0.00,,,0.00,0.000000,,2013-02-07 02:11:00,
2013-02-06 19:21:00,26.0,22.0,-100.00,West,267,2.0,10.0,85,0.00,,,0.00,0.000000,,2013-02-07 02:21:00,
2013-02-06 19:31:00,26.0,22.0,-100.00,West,267,2.0,10.0,85,0.00,,,0.00,0.000000,,2013-02-07 02:31:00,
2013-02-06 19:41:00,26.0,22.0,-100.00,West,267,2.0,10.0,85,0.00,,,0.00,0.000000,,2013-02-07 02:41:00,
2013-02-06 20:11:00,25.0,22.0,-100.00,WNW,291,7.0,14.0,90,0.00,,,0.00,0.000000,,2013-02-07 03:11:00,
2013-02-06 20:21:00,25.0,22.0,-100.00,WNW,291,7.0,14.0,90,0.00,,,0.00,0.000000,,2013-02-07 03:21:00,
2013-02-06 20:31:00,25.0,22.0,-100.00,WNW,291,7.0,14.0,90,0.00,,,0.00,0.000000,,2013-02-07 03:31:00,
2013-02-06 20:41:00,25.0,22.0,-100.00,WNW,291,7.0,14.0,90,0.00,,,0.00,0.000000,,2013-02-07 03:41:00,
2013-02-06 21:11:00,22.0,20.0,-100.00,West,271,8.0,13.0,93,0.00,,,0.00,0.000000,,2013-02-07 04:11:00,
2013-02-06 21:22:00,22.0,20.0,-100.00,West,271,8.0,13.0,93,0.00,,,0.00,0.000000,,2013-02-07 04:22:00,
2013-02-06 21:31:00,22.0,20.0,-100.00,West,271,8.0,13.0,93,0.00,,,0.00,0.000000,,2013-02-07 04:31:00,
2013-02-06 21:41:00,22.0,20.0,-100.00,West,271,8.0,13.0,93,0.00,,,0.00,0.000000,,2013-02-07 04:41:00,
2013-02-06 22:11:00,22.0,21.0,-100.00,WNW,287,5.0,15.0,96,0.00,,,0.00,0.000000,,2013-02-07 05:11:00,
2013-02-06 22:21:00,22.0,21.0,-100.00,WNW,287,5.0,15.0,96,0.00,,,0.00,0.000000,,2013-02-07 05:21:00,
2013-02-06 22:32:00,22.0,21.0,-100.00,WNW,287,5.0,15.0,96,0.00,,,0.00,0.000000,,2013-02-07 05:32:00,
2013-02-06 22:42:00,22.0,21.0,-100.00,WNW,287,5.0,15.0,96,0.00,,,0.00,0.000000,,2013-02-07 05:42:00,
2013-02-06 23:11:00,23.0,22.0,-100.00,West,274,9.0,18.0,95,0.00,,,0.00,0.000000,,2013-02-07 06:11:00,
2013-02-06 23:22:00,23.0,22.0,-100.00,West,274,9.0,18.0,95,0.00,,,0.00,0.000000,,2013-02-07 06:22:00,
2013-02-06 23:31:00,23.0,22.0,-100.00,West,274,9.0,18.0,95,0.00,,,0.00,0.000000,,2013-02-07 06:31:00,
2013-02-06 23:43:00,23.0,22.0,-100.00,West,274,9.0,18.0,95,0.00,,,0.00,0.000000,,2013-02-07 06:43:00,